,,Stat1,,Stat2,,Stat3,,Stat4,,Wind1,,Wind1,
time,status,PR1M_SUM,status,RH1M_AVG,status,SR1M_AVG,status,TA1M_AVG,status,W1dAve1m,status,W1sAve1m,
1999-08-10, 00:00:00,VALID,0,VALID,95.3996,VALID,0.0339617,VALID,20.5847,VALID,128,VALID,0.330798,
1999-08-10, 00:01:00,VALID,0,VALID,95.3703,VALID,0.0509425,VALID,20.5588,VALID,124,VALID,0.288393,
1999-08-10, 00:02:00,VALID,0,VALID,95.3831,VALID,0.0509425,VALID,20.5422,VALID,121,VALID,0.52524,
1999-08-10, 00:03:00,VALID,0,VALID,95.5713,VALID,0.0849042,VALID,20.5489,VALID,119,VALID,0.631641,
1999-08-10, 00:04:00,VALID,0,VALID,95.7633,VALID,0.0849042,VALID,20.5298,VALID,116,VALID,0.605755,
1999-08-10, 00:05:00,VALID,0,VALID,95.7912,VALID,0.0169808,VALID,20.4974,VALID,116,VALID,0.477796,
1999-08-10, 00:06:01,VALID,0,VALID,95.9171,VALID,0.0679233,VALID,20.478,VALID,120,VALID,0.431743,
1999-08-10, 00:07:01,VALID,0,VALID,95.9604,VALID,0.0339617,VALID,20.4883,VALID,130,VALID,0.434961,
1999-08-10, 00:08:00,VALID,0,VALID,96.0354,VALID,0.0679233,VALID,20.4883,VALID,136,VALID,0.551883,
1999-08-10, 00:09:00,VALID,0,VALID,96.1804,VALID,0.0339617,VALID,20.4947,VALID,132,VALID,0.632031,
1999-08-10, 00:10:00,VALID,0,VALID,96.2363,VALID,0,VALID,20.498,VALID,136,VALID,0.474159,
1999-08-10, 00:11:00,VALID,0,VALID,96.16,VALID,-0.0679233,VALID,20.5251,VALID,157,VALID,0.427484,
1999-08-10, 00:12:00,VALID,0,VALID,96.0303,VALID,-0.0849042,VALID,20.5154,VALID,166,VALID,0.449319,
1999-08-10, 00:13:00,VALID,0,VALID,95.9896,VALID,-0.101885,VALID,20.5122,VALID,165,VALID,0.343149,
1999-08-10, 00:14:00,VALID,0,VALID,96.0252,VALID,-0.0679233,VALID,20.5149,VALID,182,VALID,0.290582,
1999-08-10, 00:15:00,VALID,0,VALID,96.071,VALID,-0.0679233,VALID,20.5114,VALID,180,VALID,0.348357,
1999-08-10, 00:16:00,VALID,0,VALID,96.1842,VALID,-0.0679233,VALID,20.5251,VALID,173,VALID,0.351357,
1999-08-10, 00:17:00,VALID,0,VALID,96.2414,VALID,-0.0679233,VALID,20.5283,VALID,156,VALID,0.325863,
1999-08-10, 00:18:01,VALID,0,VALID,96.1829,VALID,-0.101885,VALID,20.5547,VALID,151,VALID,0.288086,
1999-08-10, 00:19:00,VALID,0,VALID,96.0519,VALID,-0.0849042,VALID,20.5704,VALID,136,VALID,0.106771,
1999-08-10, 00:20:00,VALID,0,VALID,95.809,VALID,-0.101885,VALID,20.5932,VALID,136,VALID,0,
1999-08-10, 00:21:00,VALID,0,VALID,95.7556,VALID,-0.0679233,VALID,20.6091,VALID,136,VALID,0,
1999-08-10, 00:22:00,VALID,0,VALID,95.6247,VALID,-0.0509425,VALID,20.6315,VALID,136,VALID,0,
1999-08-10, 00:23:00,VALID,0,VALID,95.4861,VALID,-0.0679233,VALID,20.6512,VALID,136,VALID,0,
1999-08-10, 00:24:00,VALID,0,VALID,95.3576,VALID,-0.101885,VALID,20.6641,VALID,135,VALID,0,
1999-08-10, 00:25:00,VALID,0,VALID,95.2813,VALID,-0.0339617,VALID,20.6827,VALID,135,VALID,0,
1999-08-10, 00:26:00,VALID,0,VALID,95.2355,VALID,0.0509425,VALID,20.6887,VALID,131,VALID,0,
1999-08-10, 00:27:00,VALID,0,VALID,95.1669,VALID,0.0339617,VALID,20.7145,VALID,120,VALID,0,
1999-08-10, 00:28:00,VALID,0,VALID,94.8681,VALID,0.0679233,VALID,20.7011,VALID,117,VALID,0,
1999-08-10, 00:29:01,VALID,0,VALID,94.7269,VALID,0.0339617,VALID,20.6787,VALID,110,VALID,0,
1999-08-10, 00:30:00,VALID,0,VALID,94.5069,VALID,0.0509425,VALID,20.6919,VALID,91,VALID,0,
1999-08-10, 00:31:00,VALID,0,VALID,94.1941,VALID,0.0169808,VALID,20.6949,VALID,83,VALID,0,
1999-08-10, 00:32:00,VALID,0,VALID,93.524,VALID,0,VALID,20.6717,VALID,72,VALID,0,
1999-08-10, 00:33:00,VALID,0,VALID,93.7185,VALID,0,VALID,20.6784,VALID,44,VALID,0,
1999-08-10, 00:34:00,VALID,0,VALID,93.7096,VALID,0,VALID,20.6658,VALID,69,VALID,0,
1999-08-10, 00:35:00,VALID,0,VALID,94.1331,VALID,0.0169808,VALID,20.6757,VALID,96,VALID,0,
1999-08-10, 00:36:00,VALID,0,VALID,94.2793,VALID,0.0169808,VALID,20.6857,VALID,97,VALID,0.639063,
1999-08-10, 00:37:00,VALID,0,VALID,94.5438,VALID,0.0509425,VALID,20.6693,VALID,90,VALID,0.953926,
1999-08-10, 00:38:00,VALID,0,VALID,94.7829,VALID,0.0339617,VALID,20.6437,VALID,93,VALID,0.857372,
1999-08-10, 00:39:00,VALID,0,VALID,94.8248,VALID,0,VALID,20.617,VALID,94,VALID,0.713542,
1999-08-10, 00:40:01,VALID,0,VALID,94.8579,VALID,-0.0339617,VALID,20.5917,VALID,101,VALID,0.338742,
1999-08-10, 00:41:00,VALID,0,VALID,95.0308,VALID,-0.0169808,VALID,20.5728,VALID,101,VALID,0.242405,
1999-08-10, 00:42:00,VALID,0,VALID,95.1516,VALID,-0.0509425,VALID,20.5572,VALID,101,VALID,0.0126202,
1999-08-10, 00:43:00,VALID,0,VALID,95.2775,VALID,-0.0339617,VALID,20.5437,VALID,103,VALID,0,
1999-08-10, 00:44:00,VALID,0,VALID,95.2279,VALID,-0.0849042,VALID,20.538,VALID,108,VALID,0,
1999-08-10, 00:45:00,VALID,0,VALID,95.1275,VALID,-0.0849042,VALID,20.5055,VALID,109,VALID,0,
1999-08-10, 00:46:00,VALID,0,VALID,95.0105,VALID,-0.169808,VALID,20.507,VALID,109,VALID,0,
1999-08-10, 00:47:00,VALID,0,VALID,94.8121,VALID,-0.169808,VALID,20.4677,VALID,109,VALID,0,
1999-08-10, 00:48:00,VALID,0,VALID,94.9291,VALID,-0.152827,VALID,20.462,VALID,109,VALID,0,
1999-08-10, 00:49:01,VALID,0,VALID,94.9507,VALID,-0.169808,VALID,20.4429,VALID,103,VALID,0,
1999-08-10, 00:50:00,VALID,0,VALID,95.0512,VALID,-0.169808,VALID,20.4098,VALID,85,VALID,0.0332031,
1999-08-10, 00:51:01,VALID,0,VALID,95.0702,VALID,-0.135847,VALID,20.3742,VALID,93,VALID,0.489183,
1999-08-10, 00:52:00,VALID,0,VALID,95.1796,VALID,-0.152827,VALID,20.3685,VALID,66,VALID,0.552426,
1999-08-10, 00:53:00,VALID,0,VALID,95.3195,VALID,-0.152827,VALID,20.3387,VALID,65,VALID,0.484992,
1999-08-10, 00:54:00,VALID,0,VALID,95.5484,VALID,-0.169808,VALID,20.3518,VALID,71,VALID,0.316602,
1999-08-10, 00:55:00,VALID,0,VALID,95.5255,VALID,-0.0339617,VALID,20.3635,VALID,97,VALID,0.0863381,
1999-08-10, 00:56:00,VALID,0,VALID,95.3462,VALID,0.101885,VALID,20.3418,VALID,99,VALID,0,
1999-08-10, 00:57:00,VALID,0,VALID,95.3119,VALID,0.0509425,VALID,20.3552,VALID,99,VALID,0,
1999-08-10, 00:58:00,VALID,0,VALID,95.2584,VALID,0.101885,VALID,20.3321,VALID,92,VALID,0,
1999-08-10, 00:59:00,VALID,0,VALID,95.4288,VALID,0.0679233,VALID,20.3525,VALID,67,VALID,0,
1999-08-10, 01:00:00,VALID,0,VALID,95.3436,VALID,0.0339617,VALID,20.3423,VALID,50,VALID,0,
1999-08-10, 01:01:00,VALID,0,VALID,94.8693,VALID,0.101885,VALID,20.2809,VALID,50,VALID,0,
1999-08-10, 01:02:01,VALID,0,VALID,95.2851,VALID,0.0509425,VALID,20.2553,VALID,79,VALID,0,
1999-08-10, 01:03:00,VALID,0,VALID,95.8116,VALID,0.0679233,VALID,20.258,VALID,95,VALID,0,
1999-08-10, 01:04:00,VALID,0,VALID,96.2109,VALID,0.0339617,VALID,20.2685,VALID,94,VALID,0,
1999-08-10, 01:05:00,VALID,0,VALID,96.338,VALID,0.0679233,VALID,20.2682,VALID,68,VALID,0,
1999-08-10, 01:06:00,VALID,0,VALID,96.4245,VALID,0.0339617,VALID,20.2879,VALID,63,VALID,0,
1999-08-10, 01:07:00,VALID,0,VALID,96.3724,VALID,0.0679233,VALID,20.2908,VALID,68,VALID,0,
1999-08-10, 01:08:00,VALID,0,VALID,95.8243,VALID,0.0509425,VALID,20.2518,VALID,96,VALID,0,
1999-08-10, 01:09:00,VALID,0,VALID,95.9782,VALID,0.0849042,VALID,20.2456,VALID,97,VALID,0,
1999-08-10, 01:10:00,VALID,0,VALID,96.0812,VALID,0.0339617,VALID,20.2526,VALID,97,VALID,0,
1999-08-10, 01:11:00,VALID,0,VALID,95.9883,VALID,-0.0509425,VALID,20.2372,VALID,97,VALID,0,
1999-08-10, 01:12:01,VALID,0,VALID,96.0125,VALID,-0.0339617,VALID,20.2504,VALID,97,VALID,0,
1999-08-10, 01:13:00,VALID,0,VALID,96.1854,VALID,-0.0509425,VALID,20.2571,VALID,97,VALID,0,
1999-08-10, 01:14:00,VALID,0,VALID,96.3673,VALID,-0.0169808,VALID,20.2864,VALID,97,VALID,0,
1999-08-10, 01:15:00,VALID,0,VALID,96.2147,VALID,-0.0339617,VALID,20.2732,VALID,105,VALID,0,
1999-08-10, 01:16:00,VALID,0,VALID,95.8281,VALID,-0.0339617,VALID,20.267,VALID,109,VALID,0,
1999-08-10, 01:17:00,VALID,0,VALID,95.7544,VALID,-0.0509425,VALID,20.2638,VALID,109,VALID,0,
1999-08-10, 01:18:00,VALID,0,VALID,95.4746,VALID,-0.0169808,VALID,20.2404,VALID,119,VALID,0,
1999-08-10, 01:19:00,VALID,0,VALID,95.6717,VALID,-0.0679233,VALID,20.2377,VALID,122,VALID,0,
1999-08-10, 01:20:00,VALID,0,VALID,95.9133,VALID,0,VALID,20.2143,VALID,122,VALID,0,
1999-08-10, 01:21:00,VALID,0,VALID,96.0468,VALID,-0.0169808,VALID,20.2054,VALID,149,VALID,0,
1999-08-10, 01:22:00,VALID,0,VALID,95.9693,VALID,-0.0679233,VALID,20.1825,VALID,200,VALID,0,
1999-08-10, 01:23:00,VALID,0,VALID,95.8154,VALID,-0.0509425,VALID,20.144,VALID,213,VALID,0,
1999-08-10, 01:24:00,VALID,0,VALID,95.7823,VALID,-0.0509425,VALID,20.1054,VALID,213,VALID,0,
1999-08-10, 01:25:00,VALID,0,VALID,95.8993,VALID,0,VALID,20.0917,VALID,203,VALID,0,
1999-08-10, 01:26:00,VALID,0,VALID,96.0545,VALID,0.0509425,VALID,20.0885,VALID,198,VALID,0,
1999-08-10, 01:27:00,VALID,0,VALID,96.1982,VALID,0,VALID,20.0589,VALID,174,VALID,0,
1999-08-10, 01:28:00,VALID,0,VALID,95.6412,VALID,0.0339617,VALID,20.0137,VALID,145,VALID,0.0162418,
1999-08-10, 01:29:00,VALID,0,VALID,95.6552,VALID,0.0509425,VALID,19.9814,VALID,140,VALID,0.621916,
1999-08-10, 01:30:00,VALID,0,VALID,95.7378,VALID,0.0169808,VALID,19.9724,VALID,136,VALID,0.584766,
1999-08-10, 01:31:00,VALID,0,VALID,95.673,VALID,0.0679233,VALID,19.9461,VALID,126,VALID,0.745593,
1999-08-10, 01:32:00,VALID,0,VALID,96.2452,VALID,0,VALID,19.9525,VALID,118,VALID,0.935697,
1999-08-10, 01:33:00,VALID,0,VALID,96.7081,VALID,0.0169808,VALID,19.9819,VALID,126,VALID,0.886218,
1999-08-10, 01:34:01,VALID,0,VALID,97.0438,VALID,-0.0169808,VALID,20.0403,VALID,130,VALID,0.951923,
1999-08-10, 01:35:00,VALID,0,VALID,97.2231,VALID,0,VALID,20.0758,VALID,134,VALID,0.727865,
1999-08-10, 01:36:00,VALID,0,VALID,97.1926,VALID,0.0339617,VALID,20.0724,VALID,132,VALID,0.476362,
1999-08-10, 01:37:00,VALID,0,VALID,97.1582,VALID,0.0339617,VALID,20.0622,VALID,140,VALID,0.614515,
1999-08-10, 01:38:00,VALID,0,VALID,97.1455,VALID,0,VALID,20.0661,VALID,141,VALID,0.656661,
1999-08-10, 01:39:00,VALID,0,VALID,97.2256,VALID,0.0169808,VALID,20.0718,VALID,131,VALID,0.44043,
1999-08-10, 01:40:00,VALID,0,VALID,97.0323,VALID,0.0169808,VALID,20.0269,VALID,132,VALID,0.234976,
1999-08-10, 01:41:00,VALID,0,VALID,96.9306,VALID,0,VALID,19.9916,VALID,128,VALID,0.319912,
1999-08-10, 01:42:00,VALID,0,VALID,96.942,VALID,0.0169808,VALID,19.9816,VALID,129,VALID,0.121595,
1999-08-10, 01:43:00,VALID,0,VALID,96.9942,VALID,0.0169808,VALID,19.9722,VALID,132,VALID,0,
1999-08-10, 01:44:00,VALID,0,VALID,97.0832,VALID,0.0679233,VALID,19.9786,VALID,133,VALID,0.199219,
1999-08-10, 01:45:00,VALID,0,VALID,97.1964,VALID,0,VALID,19.9724,VALID,133,VALID,0,
1999-08-10, 01:46:00,VALID,0,VALID,97.2332,VALID,0.0339617,VALID,19.9558,VALID,136,VALID,0,
1999-08-10, 01:47:00,VALID,0,VALID,97.2905,VALID,0.0679233,VALID,19.9296,VALID,139,VALID,0,
1999-08-10, 01:48:00,VALID,0,VALID,97.3045,VALID,0.0339617,VALID,19.9299,VALID,139,VALID,0,
1999-08-10, 01:49:00,VALID,0,VALID,97.3273,VALID,0.0849042,VALID,19.9135,VALID,139,VALID,0,
1999-08-10, 01:50:00,VALID,0,VALID,97.3896,VALID,0,VALID,19.914,VALID,139,VALID,0,
1999-08-10, 01:51:00,VALID,0,VALID,97.4443,VALID,0,VALID,19.8941,VALID,139,VALID,0,
1999-08-10, 01:52:00,VALID,0,VALID,97.4621,VALID,0,VALID,19.8886,VALID,138,VALID,0,
1999-08-10, 01:53:00,VALID,0,VALID,97.4863,VALID,0.0169808,VALID,19.8755,VALID,138,VALID,0,
1999-08-10, 01:54:00,VALID,0,VALID,97.6033,VALID,0,VALID,19.8852,VALID,138,VALID,0,
1999-08-10, 01:55:00,VALID,0,VALID,97.5918,VALID,0,VALID,19.8886,VALID,138,VALID,0,
1999-08-10, 01:56:00,VALID,0,VALID,97.5359,VALID,-0.0849042,VALID,19.8441,VALID,138,VALID,0,
1999-08-10, 01:57:00,VALID,0,VALID,97.5219,VALID,-0.0849042,VALID,19.8287,VALID,135,VALID,0,
1999-08-10, 01:58:00,VALID,0,VALID,97.1074,VALID,-0.0849042,VALID,19.7248,VALID,132,VALID,0,
1999-08-10, 01:59:00,VALID,0,VALID,96.9751,VALID,-0.0679233,VALID,19.6604,VALID,132,VALID,0,
1999-08-10, 02:00:00,VALID,0,VALID,97.0044,VALID,-0.0849042,VALID,19.6443,VALID,132,VALID,0,
1999-08-10, 02:01:00,VALID,0,VALID,96.8467,VALID,-0.0849042,VALID,19.5893,VALID,132,VALID,0,
1999-08-10, 02:02:00,VALID,0,VALID,97.0145,VALID,-0.0849042,VALID,19.5858,VALID,132,VALID,0,
1999-08-10, 02:03:00,VALID,0,VALID,96.9166,VALID,-0.101885,VALID,19.557,VALID,133,VALID,0,
1999-08-10, 02:04:00,VALID,0,VALID,97.1124,VALID,-0.0509425,VALID,19.5471,VALID,136,VALID,0,
1999-08-10, 02:05:00,VALID,0,VALID,97.3629,VALID,-0.0679233,VALID,19.5794,VALID,136,VALID,0,
1999-08-10, 02:06:01,VALID,0,VALID,97.5219,VALID,-0.0849042,VALID,19.6052,VALID,143,VALID,0,
1999-08-10, 02:07:00,VALID,0,VALID,97.438,VALID,-0.0849042,VALID,19.5796,VALID,143,VALID,0,
1999-08-10, 02:08:00,VALID,0,VALID,97.2981,VALID,-0.0679233,VALID,19.5274,VALID,143,VALID,0,
1999-08-10, 02:09:00,VALID,0,VALID,97.3083,VALID,-0.0849042,VALID,19.4891,VALID,143,VALID,0,
1999-08-10, 02:10:00,VALID,0,VALID,97.3515,VALID,-0.0679233,VALID,19.4665,VALID,143,VALID,0,
1999-08-10, 02:11:00,VALID,0,VALID,97.5143,VALID,-0.0509425,VALID,19.4797,VALID,157,VALID,0,
1999-08-10, 02:12:00,VALID,0,VALID,97.4927,VALID,-0.101885,VALID,19.4762,VALID,164,VALID,0,
1999-08-10, 02:13:00,VALID,0,VALID,97.3362,VALID,-0.0679233,VALID,19.4086,VALID,163,VALID,0,
1999-08-10, 02:14:00,VALID,0,VALID,97.6847,VALID,-0.0849042,VALID,19.4277,VALID,163,VALID,0,
1999-08-10, 02:15:00,VALID,0,VALID,97.9848,VALID,-0.101885,VALID,19.5152,VALID,163,VALID,0.469141,
1999-08-10, 02:16:00,VALID,0,VALID,98.1246,VALID,-0.101885,VALID,19.5796,VALID,161,VALID,0.48738,
1999-08-10, 02:17:00,VALID,0,VALID,98.1475,VALID,-0.101885,VALID,19.6348,VALID,146,VALID,0.40004,
1999-08-10, 02:18:00,VALID,0,VALID,97.8741,VALID,-0.0509425,VALID,19.5799,VALID,148,VALID,0.391226,
1999-08-10, 02:19:00,VALID,0,VALID,97.6452,VALID,-0.101885,VALID,19.4541,VALID,158,VALID,0.646234,
1999-08-10, 02:20:00,VALID,0,VALID,97.8347,VALID,-0.101885,VALID,19.4538,VALID,155,VALID,0.754123,
1999-08-10, 02:21:00,VALID,0,VALID,97.9008,VALID,-0.0849042,VALID,19.4576,VALID,145,VALID,0.630409,
1999-08-10, 02:22:00,VALID,0,VALID,98.1475,VALID,-0.101885,VALID,19.5284,VALID,146,VALID,0.764391,
1999-08-10, 02:23:00,VALID,0,VALID,98.2264,VALID,-0.0679233,VALID,19.5965,VALID,154,VALID,0.564145,
1999-08-10, 02:24:00,VALID,0,VALID,98.159,VALID,-0.101885,VALID,19.6062,VALID,160,VALID,0.355273,
1999-08-10, 02:25:00,VALID,0,VALID,98.1208,VALID,-0.0849042,VALID,19.5834,VALID,162,VALID,0.505409,
1999-08-10, 02:26:00,VALID,0,VALID,98.2048,VALID,-0.101885,VALID,19.6162,VALID,168,VALID,0.508213,
1999-08-10, 02:27:00,VALID,0,VALID,98.2734,VALID,-0.0849042,VALID,19.6614,VALID,175,VALID,0.503205,
1999-08-10, 02:28:01,VALID,0,VALID,98.2734,VALID,-0.0849042,VALID,19.6671,VALID,186,VALID,0.544671,
1999-08-10, 02:29:00,VALID,0,VALID,98.2747,VALID,-0.101885,VALID,19.6868,VALID,198,VALID,0.578559,
1999-08-10, 02:30:00,VALID,0,VALID,98.2543,VALID,-0.0849042,VALID,19.6803,VALID,196,VALID,0.576122,
1999-08-10, 02:31:00,VALID,0,VALID,98.2175,VALID,-0.0849042,VALID,19.6674,VALID,203,VALID,0.516653,
1999-08-10, 02:32:00,VALID,0,VALID,98.2149,VALID,-0.0679233,VALID,19.6378,VALID,208,VALID,0.438734,
1999-08-10, 02:33:00,VALID,0,VALID,98.2124,VALID,-0.118866,VALID,19.6256,VALID,207,VALID,0.372852,
1999-08-10, 02:34:00,VALID,0,VALID,98.1297,VALID,-0.118866,VALID,19.5704,VALID,222,VALID,0.486178,
1999-08-10, 02:35:00,VALID,0,VALID,98.0356,VALID,-0.101885,VALID,19.4924,VALID,225,VALID,0.644431,
1999-08-10, 02:36:00,VALID,0,VALID,98.2162,VALID,-0.101885,VALID,19.4864,VALID,228,VALID,0.866987,
1999-08-10, 02:37:00,VALID,0,VALID,98.262,VALID,-0.118866,VALID,19.4862,VALID,223,VALID,0.811098,
1999-08-10, 02:38:00,VALID,0,VALID,98.2861,VALID,-0.101885,VALID,19.4869,VALID,225,VALID,1.02561,
1999-08-10, 02:39:00,VALID,0,VALID,98.3001,VALID,-0.101885,VALID,19.4832,VALID,223,VALID,0.847356,
1999-08-10, 02:40:00,VALID,0,VALID,98.3599,VALID,-0.0679233,VALID,19.4934,VALID,218,VALID,0.998766,
1999-08-10, 02:41:00,VALID,0,VALID,98.3968,VALID,0.0169808,VALID,19.4981,VALID,204,VALID,0.806949,
1999-08-10, 02:42:00,VALID,0,VALID,98.4222,VALID,0.0169808,VALID,19.5247,VALID,209,VALID,0.728711,
1999-08-10, 02:43:00,VALID,0,VALID,98.3701,VALID,0.0339617,VALID,19.5143,VALID,197,VALID,0.469551,
1999-08-10, 02:44:00,VALID,0,VALID,98.3065,VALID,0,VALID,19.4688,VALID,213,VALID,0.464744,
1999-08-10, 02:45:00,VALID,0,VALID,98.3523,VALID,-0.0169808,VALID,19.4462,VALID,215,VALID,0.674679,
1999-08-10, 02:46:00,VALID,0,VALID,98.4438,VALID,0,VALID,19.4663,VALID,219,VALID,0.85617,
1999-08-10, 02:47:00,VALID,0,VALID,98.4514,VALID,0.0339617,VALID,19.4889,VALID,216,VALID,0.820747,
1999-08-10, 02:48:00,VALID,0,VALID,98.4629,VALID,0.0169808,VALID,19.4909,VALID,214,VALID,0.836138,
1999-08-10, 02:49:00,VALID,0,VALID,98.4743,VALID,0.0339617,VALID,19.5143,VALID,214,VALID,0.95477,
1999-08-10, 02:50:00,VALID,0,VALID,98.4794,VALID,0.0509425,VALID,19.5341,VALID,217,VALID,1.00123,
1999-08-10, 02:51:01,VALID,0,VALID,98.4438,VALID,0,VALID,19.5205,VALID,215,VALID,0.638086,
1999-08-10, 02:52:00,VALID,0,VALID,98.4362,VALID,0,VALID,19.5048,VALID,215,VALID,0.685697,
1999-08-10, 02:53:00,VALID,0,VALID,98.4196,VALID,0,VALID,19.4951,VALID,201,VALID,0.758213,
1999-08-10, 02:54:00,VALID,0,VALID,98.4375,VALID,0.0339617,VALID,19.4747,VALID,196,VALID,0.842748,
1999-08-10, 02:55:00,VALID,0,VALID,98.4947,VALID,0.0339617,VALID,19.5048,VALID,190,VALID,1.05349,
1999-08-10, 02:56:00,VALID,0,VALID,98.5252,VALID,0.0339617,VALID,19.5269,VALID,192,VALID,0.992188,
1999-08-10, 02:57:00,VALID,0,VALID,98.4603,VALID,0.0509425,VALID,19.5334,VALID,175,VALID,0.903245,
1999-08-10, 02:58:00,VALID,0,VALID,98.4324,VALID,0.0509425,VALID,19.4882,VALID,175,VALID,0.838816,
1999-08-10, 02:59:00,VALID,0,VALID,98.4057,VALID,0.0339617,VALID,19.4723,VALID,170,VALID,0.912007,
1999-08-10, 03:00:00,VALID,0,VALID,98.4286,VALID,0.0169808,VALID,19.4596,VALID,162,VALID,1.01465,
1999-08-10, 03:01:00,VALID,0,VALID,98.384,VALID,0.0339617,VALID,19.4141,VALID,165,VALID,1.05288,
1999-08-10, 03:02:00,VALID,0,VALID,98.3637,VALID,0.0339617,VALID,19.3877,VALID,167,VALID,0.847957,
1999-08-10, 03:03:00,VALID,0,VALID,98.2645,VALID,0.0169808,VALID,19.3169,VALID,153,VALID,0.785457,
1999-08-10, 03:04:00,VALID,0,VALID,98.3205,VALID,0,VALID,19.2682,VALID,150,VALID,1.04467,
1999-08-10, 03:05:00,VALID,0,VALID,98.3828,VALID,0.0169808,VALID,19.2714,VALID,162,VALID,0.695095,
1999-08-10, 03:06:00,VALID,0,VALID,98.3955,VALID,0.0849042,VALID,19.2717,VALID,178,VALID,0.633614,
1999-08-10, 03:07:00,VALID,0,VALID,98.4654,VALID,0.0509425,VALID,19.2751,VALID,189,VALID,0.827508,
1999-08-10, 03:08:00,VALID,0,VALID,98.3993,VALID,0.0509425,VALID,19.2722,VALID,196,VALID,0.726151,
1999-08-10, 03:09:00,VALID,0,VALID,98.4998,VALID,0.0509425,VALID,19.2585,VALID,208,VALID,1.02031,
1999-08-10, 03:10:00,VALID,0,VALID,98.5405,VALID,0.0509425,VALID,19.2781,VALID,205,VALID,0.69391,
1999-08-10, 03:11:00,VALID,0,VALID,98.5265,VALID,-0.0339617,VALID,19.2881,VALID,205,VALID,0.478365,
1999-08-10, 03:12:00,VALID,0,VALID,98.5036,VALID,-0.0169808,VALID,19.2719,VALID,191,VALID,0.533654,
1999-08-10, 03:13:01,VALID,0,VALID,98.5227,VALID,0,VALID,19.262,VALID,195,VALID,0.549279,
1999-08-10, 03:14:00,VALID,0,VALID,98.571,VALID,0.0169808,VALID,19.2816,VALID,194,VALID,0.514757,
1999-08-10, 03:15:00,VALID,0,VALID,98.5799,VALID,0,VALID,19.3047,VALID,179,VALID,0.590745,
1999-08-10, 03:16:00,VALID,0,VALID,98.5494,VALID,-0.0169808,VALID,19.2848,VALID,189,VALID,0.880962,
1999-08-10, 03:17:00,VALID,0,VALID,98.5672,VALID,0,VALID,19.2888,VALID,202,VALID,0.880962,
1999-08-10, 03:18:00,VALID,0,VALID,98.5748,VALID,0,VALID,19.2851,VALID,195,VALID,0.799219,
1999-08-10, 03:19:00,VALID,0,VALID,98.5964,VALID,0,VALID,19.298,VALID,195,VALID,1.02003,
1999-08-10, 03:20:00,VALID,0,VALID,98.6002,VALID,-0.0339617,VALID,19.2848,VALID,196,VALID,0.808093,
1999-08-10, 03:21:00,VALID,0,VALID,98.6015,VALID,-0.0169808,VALID,19.2848,VALID,196,VALID,0.773838,
1999-08-10, 03:22:00,VALID,0,VALID,98.5621,VALID,0,VALID,19.2692,VALID,195,VALID,0.734175,
1999-08-10, 03:23:00,VALID,0,VALID,98.5773,VALID,0,VALID,19.2498,VALID,209,VALID,0.578776,
1999-08-10, 03:24:01,VALID,0,VALID,98.5773,VALID,0,VALID,19.2267,VALID,212,VALID,0.717748,
1999-08-10, 03:25:00,VALID,0,VALID,98.6015,VALID,-0.0169808,VALID,19.214,VALID,201,VALID,0.522821,
1999-08-10, 03:26:00,VALID,0,VALID,98.5735,VALID,0,VALID,19.1978,VALID,193,VALID,0.372122,
1999-08-10, 03:27:00,VALID,0,VALID,98.585,VALID,0,VALID,19.175,VALID,197,VALID,0.551562,
1999-08-10, 03:28:00,VALID,0,VALID,98.6167,VALID,-0.0169808,VALID,19.1655,VALID,213,VALID,0.584936,
1999-08-10, 03:29:00,VALID,0,VALID,98.6549,VALID,-0.0169808,VALID,19.175,VALID,222,VALID,0.801082,
1999-08-10, 03:30:00,VALID,0,VALID,98.7019,VALID,0,VALID,19.1886,VALID,220,VALID,0.741587,
1999-08-10, 03:31:00,VALID,0,VALID,98.721,VALID,-0.0509425,VALID,19.2011,VALID,215,VALID,0.554688,
1999-08-10, 03:32:00,VALID,0,VALID,98.7325,VALID,0,VALID,19.2204,VALID,219,VALID,0.409939,
1999-08-10, 03:33:00,VALID,0,VALID,98.7274,VALID,0,VALID,19.2371,VALID,222,VALID,0.280449,
1999-08-10, 03:34:00,VALID,0,VALID,98.7096,VALID,0,VALID,19.2272,VALID,222,VALID,0.0370066,
1999-08-10, 03:35:01,VALID,0,VALID,98.5926,VALID,-0.0169808,VALID,19.1168,VALID,222,VALID,0,
1999-08-10, 03:36:00,VALID,0,VALID,98.3942,VALID,-0.0169808,VALID,18.9329,VALID,183,VALID,0.0914062,
1999-08-10, 03:37:00,VALID,0,VALID,98.2899,VALID,0.0169808,VALID,18.7681,VALID,114,VALID,0.564303,
1999-08-10, 03:38:00,VALID,0,VALID,98.3853,VALID,-0.0339617,VALID,18.7102,VALID,113,VALID,0.675681,
1999-08-10, 03:39:00,VALID,0,VALID,98.5023,VALID,0,VALID,18.7233,VALID,115,VALID,0.896635,
1999-08-10, 03:40:00,VALID,0,VALID,98.618,VALID,0.0169808,VALID,18.7554,VALID,122,VALID,0.751402,
1999-08-10, 03:41:00,VALID,0,VALID,98.7287,VALID,0,VALID,18.8168,VALID,133,VALID,0.804688,
1999-08-10, 03:42:00,VALID,0,VALID,98.7897,VALID,-0.0169808,VALID,18.904,VALID,141,VALID,0.709535,
1999-08-10, 03:43:00,VALID,0,VALID,98.7833,VALID,-0.0509425,VALID,18.9435,VALID,141,VALID,0.509046,
1999-08-10, 03:44:00,VALID,0,VALID,98.7528,VALID,-0.0509425,VALID,18.9497,VALID,149,VALID,0.597656,
1999-08-10, 03:45:01,VALID,0,VALID,98.7732,VALID,-0.0509425,VALID,18.9659,VALID,164,VALID,0.614844,
1999-08-10, 03:46:01,VALID,0,VALID,98.8049,VALID,-0.0169808,VALID,19.0178,VALID,169,VALID,0.596554,
1999-08-10, 03:47:00,VALID,0,VALID,98.7808,VALID,-0.0169808,VALID,19.0335,VALID,171,VALID,0.646635,
1999-08-10, 03:48:00,VALID,0,VALID,98.6447,VALID,0,VALID,18.9694,VALID,170,VALID,0.613582,
1999-08-10, 03:49:00,VALID,0,VALID,98.7465,VALID,-0.0169808,VALID,18.9855,VALID,160,VALID,0.695313,
1999-08-10, 03:50:00,VALID,0,VALID,98.5773,VALID,-0.0509425,VALID,18.8655,VALID,137,VALID,0.737847,
1999-08-10, 03:51:00,VALID,0,VALID,98.5773,VALID,-0.0339617,VALID,18.814,VALID,137,VALID,0.765024,
1999-08-10, 03:52:00,VALID,0,VALID,98.7185,VALID,0,VALID,18.8593,VALID,139,VALID,0.80222,
1999-08-10, 03:53:00,VALID,0,VALID,98.7922,VALID,-0.0169808,VALID,18.9271,VALID,140,VALID,0.611431,
1999-08-10, 03:54:00,VALID,0,VALID,98.7719,VALID,-0.0339617,VALID,18.9368,VALID,123,VALID,0.613867,
1999-08-10, 03:55:00,VALID,0,VALID,98.6969,VALID,-0.0169808,VALID,18.872,VALID,117,VALID,0.589944,
1999-08-10, 03:56:00,VALID,0,VALID,98.6155,VALID,-0.0339617,VALID,18.7847,VALID,109,VALID,0.622596,
1999-08-10, 03:57:01,VALID,0,VALID,98.6384,VALID,-0.0169808,VALID,18.7621,VALID,109,VALID,0.455529,
1999-08-10, 03:58:00,VALID,0,VALID,98.7248,VALID,0,VALID,18.8009,VALID,118,VALID,0.115385,
1999-08-10, 03:59:00,VALID,0,VALID,98.7668,VALID,0,VALID,18.8297,VALID,118,VALID,0.063151,
1999-08-10, 04:00:00,VALID,0,VALID,98.7693,VALID,-0.0339617,VALID,18.8431,VALID,102,VALID,0.173878,
1999-08-10, 04:01:00,VALID,0,VALID,98.8011,VALID,0,VALID,18.8791,VALID,30,VALID,0.253701,
1999-08-10, 04:02:00,VALID,0,VALID,98.8266,VALID,0,VALID,18.8983,VALID,30,VALID,0.0236431,
1999-08-10, 04:03:00,VALID,0,VALID,98.8367,VALID,0,VALID,18.9336,VALID,30,VALID,0,
1999-08-10, 04:04:00,VALID,0,VALID,98.8164,VALID,-0.0339617,VALID,18.9331,VALID,30,VALID,0,
1999-08-10, 04:05:00,VALID,0,VALID,98.7922,VALID,-0.0509425,VALID,18.9336,VALID,30,VALID,0,
1999-08-10, 04:06:00,VALID,0,VALID,98.6981,VALID,-0.0509425,VALID,18.9013,VALID,43,VALID,0,
1999-08-10, 04:07:01,VALID,0,VALID,98.6714,VALID,0,VALID,18.8364,VALID,170,VALID,0.185096,